Home > Weather > Davis > Past weeks

Flag for U.S.A. Weather for the Past 2 Weeks in Davis, California, U.S.A.

Now
65 °F

Partly sunny.


Feels Like: 65 °F
Forecast: 46 / 71 °F
Wind: 6 mph from Northeast

Location: Sacramento International Airport

Current Time: Feb 12, 2016 at 1:10:52 PM

Latest Report: Feb 12, 2016 at 11:53 AM


Visibility: 10 mi

Pressure: 30.21 "Hg

Humidity: 59%

Dew point: 50 °F

Location of DavisLocation

Historic Weather in Davis — Graph

°F

Davis Temperature Yesterday

Maximum temperature yesterday: 68 °F (at 2:53 PM)
Minimum temperature yesterday: 42 °F (at 5:53 AM)
Average temperature yesterday: 55 °F

High & Low Weather Summary for the Past Weeks

 TemperatureHumidityPressure
High70 °F (Feb 8, 2:53 PM)100% (Feb 8, 12:53 AM)30.49 "Hg (Feb 8, 12:53 AM)
Low34 °F (Feb 3, 4:53 AM)35% (Feb 1, 1:53 PM)29.71 "Hg (Jan 31, 2:53 PM)
Average50 °F78%30.21 "Hg
* Reported Jan 28 11:53 AM — Feb 12 11:53 AM, Davis, Weather by CustomWeather, © 2016

Note: Actual official high and low records may vary slightly from our data, if they occured in-between our weather recording intervals... More about our weather records

Advertising

Davis Weather History for the Previous 24 Hours

 ConditionsComfort  
Time TempWeatherWind HumidityBarometerVisibility
11:53 AM
Fri, Feb 12
65 °FPartly sunny.6 mph59%30.21 "Hg10 mi
10:53 AM61 °FPartly sunny.5 mph72%30.22 "Hg10 mi
9:53 AM56 °FPartly sunny.5 mph84%30.22 "Hg10 mi
8:53 AM51 °FFog.3 mph92%30.22 "Hg2 mi
7:53 AM45 °FFog.No wind93%30.21 "Hg1 mi
6:53 AM42 °FFog.No wind96%30.19 "Hg0 mi
5:53 AM42 °FFog.No wind100%30.19 "Hg1 mi
4:53 AM43 °FFog.3 mph97%30.18 "Hg2 mi
3:53 AM44 °FClear.3 mph96%30.17 "Hg7 mi
2:53 AM45 °FClear.No wind97%30.18 "Hg9 mi
1:53 AM48 °FClear.5 mph96%30.17 "Hg9 mi
12:53 AM46 °FClear.5 mph96%30.17 "Hg9 mi
11:53 PM
Thu, Feb 11
48 °FClear.No wind96%30.16 "Hg9 mi
10:53 PM50 °FClear.3 mph89%30.16 "Hg10 mi
9:53 PM50 °FPassing clouds.3 mph89%30.15 "Hg10 mi
8:53 PM54 °FPassing clouds.No wind86%30.15 "Hg10 mi
7:53 PM58 °FPassing clouds.No wind78%30.14 "Hg10 mi
6:53 PM57 °FPassing clouds.5 mph78%30.15 "Hg10 mi
5:53 PM61 °FPartly cloudy.No wind70%30.13 "Hg10 mi
4:53 PM66 °FBroken clouds.No wind56%30.12 "Hg10 mi
3:53 PM67 °FPartly sunny.3 mph59%30.12 "Hg10 mi
2:53 PM68 °FPartly sunny.No wind59%30.12 "Hg10 mi
Weather by CustomWeather, © 2016

See weather overviewHow to use our weather pages